Location: Arrakis Observatory
(44.1122°N, 95.7153°W)
Time: 01:11:16
(UTC-06:00)

Amateur Radio Satellites - All Passes

Search period start: 06 February 2016 00:41
Search period end: 07 February 2016 00:41
Location: Arrakis Observatory, 44.1122°N, 95.7153°W

Satellite Date Start Highest point End Downlink Frequencies (MHz)
Time Altitude Azimuth
JAS-2 06 Feb 00:42:14 00:43:57 11° 83° (E) 00:45:36 435.910
ISS 06 Feb 01:15:20 01:17:00 13° 228° (SW) 01:18:41 145.825
POLYITAN 1 06 Feb 01:24:36 01:26:17 12° 299° (WNW) 01:27:59 437.675
QB50P2 06 Feb 01:25:41 01:27:10 12° 300° (WNW) 01:28:41 145.880/145.840
Gurwin Techsat 1B 06 Feb 01:27:26 01:30:48 17° 90° (E) 01:34:08 435.225
SWISSCUBE 06 Feb 01:30:34 01:35:19 85° 74° (ENE) 01:40:07 437.505
Oscar 19 06 Feb 01:31:43 01:36:40 46° 99° (E) 01:41:34 437.125/150
BUGSAT 1 06 Feb 01:53:25 01:54:44 11° 300° (WNW) 01:56:02 437.445
STARS 06 Feb 01:53:25 01:54:51 11° 59° (ENE) 01:56:18 437.465
KKS-1 06 Feb 01:56:11 01:59:34 22° 64° (ENE) 02:02:57 437.445
Cosmos 2491 06 Feb 02:03:03 02:11:09 40° 71° (ENE) 02:19:14 435.465 / 435.565
ITUPSAT 1 06 Feb 02:05:12 02:09:49 50° 260° (W) 02:14:30 437.325
DANDE 06 Feb 02:08:53 02:15:28 36° 85° (E) 02:22:51 436.750
CUSAT 1 06 Feb 02:12:12 02:19:45 59° 93° (E) 02:27:43 437.405
BEESAT 06 Feb 02:16:58 02:21:23 38° 263° (W) 02:25:50 436.000
JAS-2 06 Feb 02:24:10 02:30:10 87° 103° (ESE) 02:35:32 435.910
BEESAT 3 06 Feb 02:30:17 02:33:56 33° 48° (NE) 02:37:32 437.485
ITAMSAT 1 06 Feb 02:30:44 02:35:27 33° 96° (E) 02:40:08 435.822/435.867
BEESAT 2 06 Feb 02:46:25 02:50:05 32° 47° (NE) 02:53:41 435.950
MOZHAYETS 4 06 Feb 02:53:05 02:57:02 30° 68° (ENE) 03:01:02
YUBILEINY 06 Feb 02:57:09 03:04:41 34° 83° (E) 03:12:16 435.215
Gurwin Techsat 1B 06 Feb 03:05:56 03:11:14 67° 288° (WNW) 03:16:30 435.225
Oscar 19 06 Feb 03:11:37 03:15:43 24° 297° (WNW) 03:19:48 437.125/150
SWISSCUBE 06 Feb 03:12:33 03:13:45 11° 272° (W) 03:14:58 437.505
STARS 06 Feb 03:26:09 03:30:34 84° 254° (WSW) 03:35:01 437.465
AO-7 06 Feb 03:28:27 03:35:54 35° 97° (E) 03:43:17 29.400- 29.500
KKS-1 06 Feb 03:31:40 03:35:53 41° 261° (W) 03:40:08 437.445
Cosmos 2504 06 Feb 03:35:40 03:36:56 10° 69° (ENE) 03:38:12 435.465 / 435.565
PHONESAT 2.4 06 Feb 03:50:04 03:52:58 29° 164° (SSE) 03:55:52 2401.200-2431.200
DANDE 06 Feb 03:50:44 03:58:03 56° 287° (WNW) 04:06:24 436.750
CUSAT 1 06 Feb 03:55:23 04:02:28 35° 293° (WNW) 04:09:47 437.405
Cosmos 2491 06 Feb 03:59:54 04:08:08 49° 272° (W) 04:16:23 435.465 / 435.565
AIST 2 06 Feb 04:07:08 04:10:42 27° 45° (NE) 04:14:14 435.215
BEESAT 3 06 Feb 04:08:17 04:11:34 25° 246° (WSW) 04:14:48 437.485
ITAMSAT 1 06 Feb 04:10:13 04:14:54 34° 294° (WNW) 04:19:34 435.822/435.867
JAS-2 06 Feb 04:10:57 04:14:17 16° 306° (NW) 04:17:26 435.910
BEESAT 2 06 Feb 04:24:30 04:27:52 26° 245° (WSW) 04:31:12 435.950
MOZHAYETS 4 06 Feb 04:30:13 04:34:11 29° 265° (W) 04:38:11
HORYU 2 06 Feb 04:47:56 04:52:21 64° 102° (ESE) 04:56:45 437.375
Gurwin Techsat 1B 06 Feb 04:49:12 04:50:11 10° 306° (NW) 04:51:11 435.225
YUBILEINY 06 Feb 04:52:25 05:01:00 57° 284° (WNW) 05:09:43 435.215
CUBESAT XI-V 06 Feb 04:57:57 05:02:33 60° 73° (ENE) 05:07:13 437.345
M-CUBED/EXP-1 PRIME 06 Feb 05:00:48 05:04:04 62° 291° (WNW) 05:07:28 437.505
AUBIESAT-1 06 Feb 05:14:35 05:17:51 51° 291° (WNW) 05:21:14 437.475
CUTE-I 06 Feb 05:18:18 05:20:00 11° 87° (E) 05:21:43 437.470
Cosmos 2504 06 Feb 05:19:58 05:28:10 57° 90° (E) 05:36:47 435.465 / 435.565
AO-7 06 Feb 05:20:54 05:29:00 57° 296° (WNW) 05:37:03 29.400- 29.500
PHONESAT 2.4 06 Feb 05:26:48 05:29:57 44° 181° (S) 05:33:05 2401.200-2431.200
Cubesat XI-IV 06 Feb 05:29:30 05:32:32 15° 89° (E) 05:35:34 437.490
STRAND 1 06 Feb 05:31:57 05:35:50 23° 62° (ENE) 05:39:45 437.568
DANDE 06 Feb 05:39:11 05:43:08 14° 309° (NW) 05:47:14 436.750
AIST 2 06 Feb 05:45:28 05:49:16 36° 243° (WSW) 05:53:01 435.215
BRITE-PL 06 Feb 05:57:32 05:59:52 13° 86° (E) 06:02:08 437.365/2234.400
SO-50 06 Feb 06:19:32 06:24:23 68° 121° (ESE) 06:29:20 436.795
HORYU 2 06 Feb 06:25:58 06:28:26 15° 299° (WNW) 06:30:54 437.375
CUBESAT XI-V 06 Feb 06:37:36 06:40:20 15° 270° (W) 06:43:07 437.345
PRISM 06 Feb 06:51:17 06:55:05 36° 69° (ENE) 06:58:55 437.425
CUTE-I 06 Feb 06:55:24 07:00:49 86° 103° (ESE) 07:06:12 437.470
YUBILEINY 06 Feb 06:56:50 07:00:10 12° 309° (NW) 07:03:31 435.215
LilacSat-2 06 Feb 06:59:11 07:02:58 77° 285° (WNW) 07:06:44 437.200
PHONESAT 2.4 06 Feb 07:04:05 07:06:54 26° 198° (SSW) 07:09:42 2401.200-2431.200
Cubesat XI-IV 06 Feb 07:07:47 07:13:11 75° 287° (WNW) 07:18:33 437.490
STRAND 1 06 Feb 07:09:43 07:14:41 51° 260° (W) 07:19:41 437.568
Cosmos 2504 06 Feb 07:14:18 07:21:58 36° 292° (WNW) 07:29:59 435.465 / 435.565
AO-7 06 Feb 07:15:46 07:20:02 15° 318° (NW) 07:24:17 29.400- 29.500
GOMX 1 06 Feb 07:23:46 07:28:13 47° 98° (E) 07:32:22 467.674
DOVE 4 06 Feb 07:26:39 07:30:15 25° 94° (E) 07:33:43 437.250
BRITE-PL 06 Feb 07:34:04 07:39:02 69° 286° (WNW) 07:43:34 437.365/2234.400
CANX-2 06 Feb 07:52:08 07:55:33 23° 94° (E) 07:58:58 2200.000
SO-50 06 Feb 08:01:26 08:05:21 23° 321° (NW) 08:09:19 436.795
HO-68 06 Feb 08:14:02 08:20:49 42° 98° (E) 08:27:34 435.675
GONETS M04 06 Feb 08:22:16 08:29:06 27° 81° (E) 08:35:56
PRISM 06 Feb 08:27:23 08:30:32 21° 266° (W) 08:33:42 437.425
CUTE-I 06 Feb 08:37:10 08:40:08 15° 303° (WNW) 08:43:06 437.470
CUTE 1.7 + AOD 2 06 Feb 08:42:56 08:47:13 72° 102° (ESE) 08:51:29 437.475
Cosmos 2499 06 Feb 08:45:09 08:49:53 16° 74° (ENE) 08:54:39 435.465 / 435.565
ANTELSAT 06 Feb 08:49:22 08:52:12 17° 64° (ENE) 08:55:00 437.575/2403.000
COMPASS 1 06 Feb 08:50:14 08:54:19 48° 99° (E) 08:58:25 437.405
Cubesat XI-IV 06 Feb 08:50:22 08:52:20 12° 305° (NW) 08:54:19 437.490
CINEMA 3 06 Feb 08:51:27 08:55:37 71° 102° (ESE) 08:59:45 145.822/145.860
SEEDS 06 Feb 08:56:44 09:01:00 77° 102° (ESE) 09:05:16 437.485
TIGRISAT 06 Feb 08:57:23 09:00:30 20° 65° (ENE) 09:03:36 435.000
GOMX 1 06 Feb 09:02:45 09:05:55 19° 298° (WNW) 09:08:57 467.674
DOVE 4 06 Feb 09:04:12 09:08:00 29° 292° (WNW) 09:11:39 437.250
ZACube-1 06 Feb 09:04:16 09:07:11 18° 93° (E) 09:10:07 437.345
O/OREOS (USA 219) 06 Feb 09:14:05 09:18:33 88° 116° (ESE) 09:23:05 437.305
FUNcube-1 06 Feb 09:15:13 09:18:33 23° 94° (E) 09:21:54 145.935
AAUSAT CUBESAT 2 06 Feb 09:22:53 09:27:07 89° 271° (W) 09:31:19 437.432
CUBEBUG 2 06 Feb 09:26:26 09:30:34 62° 101° (E) 09:34:44 437.445
CANX-2 06 Feb 09:27:37 09:31:29 34° 290° (WNW) 09:35:21 2200.000
DELFI C3 06 Feb 09:34:49 09:38:17 27° 95° (E) 09:41:45 145.870
UWE-3 06 Feb 09:36:01 09:40:09 57° 101° (E) 09:44:18 435.000/436.395/437.385
POPSAT HIP 1 06 Feb 09:38:58 09:41:17 15° 62° (ENE) 09:43:37 437.405
UNISAT 6 06 Feb 09:39:08 09:43:22 54° 73° (ENE) 09:47:35 437.425
NANOSAT C BR1 06 Feb 09:45:52 09:48:34 17° 63° (ENE) 09:51:15 145.865
DUCHIFAT 1 06 Feb 09:49:06 09:51:51 17° 64° (ENE) 09:54:36 145.980
QB50P1 06 Feb 09:51:11 09:54:13 19° 65° (ENE) 09:57:16 145.935-145.965
Oscar 11 06 Feb 09:53:56 09:58:18 82° 103° (ESE) 10:02:39 145.826/435.025
HUMSAT D 06 Feb 09:58:27 10:01:39 21° 94° (E) 10:04:51 437.325/437.525
HO-68 06 Feb 10:01:51 10:08:30 42° 297° (WNW) 10:15:07 435.675
AIST 1 06 Feb 10:10:34 10:12:28 13° 83° (E) 10:14:22
GONETS M04 06 Feb 10:16:29 10:25:07 69° 281° (WNW) 10:33:50
CUTE 1.7 + AOD 2 06 Feb 10:20:42 10:22:30 12° 299° (WNW) 10:24:17 437.475
ANTELSAT 06 Feb 10:24:21 10:28:34 49° 260° (W) 10:32:45 437.575/2403.000
COMPASS 1 06 Feb 10:26:48 10:29:33 17° 296° (WNW) 10:32:17 437.405
CINEMA 3 06 Feb 10:30:47 10:32:13 12° 299° (WNW) 10:33:37 145.822/145.860
RS-15 06 Feb 10:32:08 10:38:41 18° 96° (E) 10:45:22 29.354- 29.394
Cosmos 2499 06 Feb 10:32:48 10:41:24 75° 94° (E) 10:50:18 435.465 / 435.565
TIGRISAT 06 Feb 10:32:49 10:36:56 42° 261° (W) 10:41:02 435.000
SEEDS 06 Feb 10:34:39 10:36:07 12° 299° (WNW) 10:37:35 437.485
50 SAT 06 Feb 10:37:32 10:39:03 12° 91° (E) 10:40:33 437.505
ZACube-1 06 Feb 10:39:44 10:43:39 40° 289° (WNW) 10:47:38 437.345
VELOX 1 06 Feb 10:40:32 10:42:15 12° 89° (E) 10:43:59 145.980
POLYITAN 1 06 Feb 10:40:41 10:44:53 64° 74° (ENE) 10:49:05 437.675
QB50P2 06 Feb 10:41:32 10:45:45 67° 74° (ENE) 10:49:59 145.880/145.840
FUNcube-1 06 Feb 10:51:08 10:54:52 32° 290° (WNW) 10:58:38 145.935
AISAT 06 Feb 10:55:18 10:58:23 18° 92° (E) 11:01:27 437.250
O/OREOS (USA 219) 06 Feb 10:56:37 10:58:39 13° 313° (NW) 11:00:42 437.305
JAS-2 06 Feb 10:57:21 10:59:16 11° 50° (NE) 11:01:09 435.910
ESTCUBE 1 06 Feb 11:00:28 11:04:07 23° 94° (E) 11:07:43 437.505/2401.250
CUBEBUG 2 06 Feb 11:04:44 11:06:44 13° 298° (WNW) 11:08:44 437.445
BUGSAT 1 06 Feb 11:06:38 11:10:47 60° 74° (ENE) 11:14:56 437.445
DELFI C3 06 Feb 11:09:45 11:13:07 26° 292° (WNW) 11:16:30 145.870
POPSAT HIP 1 06 Feb 11:12:26 11:16:38 59° 259° (W) 11:20:50 437.405
UWE-3 06 Feb 11:13:56 11:16:11 14° 297° (WNW) 11:18:27 435.000/436.395/437.385
Oscar 19 06 Feb 11:14:44 11:16:34 12° 56° (NE) 11:18:24 437.125/150
UNISAT 6 06 Feb 11:18:02 11:20:27 15° 269° (W) 11:22:50 437.425
AO-85 06 Feb 11:18:44 11:23:47 45° 117° (ESE) 11:29:02 145.980
NANOSAT C BR1 06 Feb 11:19:50 11:23:57 50° 260° (W) 11:28:04 145.865
DUCHIFAT 1 06 Feb 11:23:07 11:27:13 48° 260° (W) 11:31:19 145.980
QB50P1 06 Feb 11:25:43 11:29:44 41° 262° (W) 11:33:46 145.935-145.965
CUBEBUG 1 06 Feb 11:26:17 11:30:12 31° 96° (E) 11:34:04 437.445
UKube-1 06 Feb 11:30:03 11:34:04 36° 98° (E) 11:38:03 .
Oscar 11 06 Feb 11:32:24 11:33:47 11° 300° (WNW) 11:35:10 145.826/435.025
HUMSAT D 06 Feb 11:33:37 11:37:23 34° 290° (WNW) 11:41:10 437.325/437.525
DX 1 06 Feb 11:34:40 11:38:55 48° 100° (E) 11:43:07 434.975-435.025
AIST 1 06 Feb 11:45:09 11:49:30 61° 280° (W) 11:53:53
SPROUT 06 Feb 11:46:57 11:50:00 19° 93° (E) 11:53:01 437.525
PCSat 06 Feb 12:01:38 12:07:01 70° 118° (ESE) 12:12:26 145.827
50 SAT 06 Feb 12:09:42 12:13:24 51° 287° (WNW) 12:17:05 437.505
TISAT 1 06 Feb 12:12:24 12:14:17 13° 90° (E) 12:16:11 437.305
VELOX 1 06 Feb 12:14:47 12:19:13 69° 286° (WNW) 12:23:36 145.980
GONETS M04 06 Feb 12:19:08 12:23:50 15° 305° (NW) 12:28:35
POLYITAN 1 06 Feb 12:19:26 12:21:08 12° 270° (W) 12:22:49 437.675
QB50P2 06 Feb 12:20:33 12:22:01 12° 271° (W) 12:23:29 145.880/145.840
Cosmos 2499 06 Feb 12:28:18 12:35:26 27° 296° (WNW) 12:42:45 435.465 / 435.565
AISAT 06 Feb 12:30:53 12:35:07 45° 289° (WNW) 12:39:17 437.250
JAS-2 06 Feb 12:35:29 12:42:52 51° 68° (ENE) 12:49:42 435.910
ESTCUBE 1 06 Feb 12:36:49 12:41:02 37° 291° (WNW) 12:45:12 437.505/2401.250
RS-15 06 Feb 12:37:45 12:48:48 75° 119° (ESE) 13:00:29 29.354- 29.394
AO-7 06 Feb 12:41:44 12:45:48 15° 41° (NE) 12:49:51 29.400- 29.500
BUGSAT 1 06 Feb 12:44:38 12:46:33 13° 270° (W) 12:48:28 437.445
DANDE 06 Feb 12:48:31 12:55:08 30° 63° (ENE) 13:00:35 436.750
CUSAT 1 06 Feb 12:49:08 12:55:25 42° 69° (ENE) 13:00:15 437.405
Gurwin Techsat 1B 06 Feb 12:49:32 12:54:09 31° 65° (ENE) 12:58:48 435.225
Oscar 19 06 Feb 12:49:51 12:55:02 78° 74° (ENE) 13:00:14 437.125/150
AO-85 06 Feb 12:59:32 13:04:30 35° 316° (NW) 13:09:32 145.980
CUBEBUG 1 06 Feb 13:02:44 13:06:24 26° 293° (WNW) 13:10:02 437.445
YUBILEINY 06 Feb 13:05:11 13:10:57 18° 58° (ENE) 13:16:39 435.215
UKube-1 06 Feb 13:06:32 13:09:56 23° 295° (WNW) 13:13:18 .
SO-50 06 Feb 13:10:11 13:13:31 18° 35° (NE) 13:16:48 436.795
DX 1 06 Feb 13:11:47 13:14:46 18° 297° (WNW) 13:17:43 434.975-435.025
SPROUT 06 Feb 13:22:09 13:26:10 41° 289° (WNW) 13:30:09 437.525
SWISSCUBE 06 Feb 13:30:08 13:33:36 19° 92° (E) 13:37:03 437.505
TISAT 1 06 Feb 13:46:13 13:50:21 58° 287° (WNW) 13:54:26 437.305
PCSat 06 Feb 13:46:40 13:50:57 23° 318° (NW) 13:55:14 145.827
ITAMSAT 1 06 Feb 13:50:02 13:55:06 58° 71° (ENE) 14:00:13 435.822/435.867
ITUPSAT 1 06 Feb 14:04:08 14:08:36 37° 97° (E) 14:13:02 437.325
BEESAT 06 Feb 14:15:07 14:19:46 48° 100° (E) 14:24:24 436.000
M-CUBED/EXP-1 PRIME 06 Feb 14:16:11 14:18:39 17° 62° (ENE) 14:21:02 437.505
JAS-2 06 Feb 14:20:56 14:27:57 37° 264° (W) 14:34:35 435.910
AO-7 06 Feb 14:28:42 14:36:45 55° 63° (ENE) 14:44:51 29.400- 29.500
Gurwin Techsat 1B 06 Feb 14:29:07 14:34:00 37° 263° (W) 14:38:56 435.225
AUBIESAT-1 06 Feb 14:29:17 14:31:58 20° 62° (ENE) 14:34:34 437.475
DANDE 06 Feb 14:31:15 14:38:40 56° 268° (W) 14:44:27 436.750
CUSAT 1 06 Feb 14:31:59 14:37:20 28° 276° (W) 14:41:39 437.405
Oscar 19 06 Feb 14:32:21 14:34:56 14° 271° (W) 14:37:32 437.125/150
AO-85 06 Feb 14:44:51 14:46:41 12° 338° (NNW) 14:48:31 145.980
SO-50 06 Feb 14:49:53 14:54:44 88° 46° (NE) 14:59:26 436.795
RS-15 06 Feb 14:51:41 15:02:16 43° 326° (NW) 15:13:28 29.354- 29.394
YUBILEINY 06 Feb 15:00:27 15:09:22 79° 81° (E) 15:18:12 435.215
Cosmos 2491 06 Feb 15:06:16 15:14:17 43° 87° (E) 15:22:18 435.465 / 435.565
SWISSCUBE 06 Feb 15:07:02 15:11:40 49° 289° (WNW) 15:16:18 437.505
Cosmos 2504 06 Feb 15:11:41 15:18:27 24° 62° (ENE) 15:24:56 435.465 / 435.565
STARS 06 Feb 15:15:25 15:18:03 16° 91° (E) 15:20:40 437.465
KKS-1 06 Feb 15:21:04 15:25:04 32° 97° (E) 15:29:02 437.445
ITAMSAT 1 06 Feb 15:31:22 15:34:57 19° 268° (W) 15:38:35 435.822/435.867
ITUPSAT 1 06 Feb 15:42:16 15:46:17 27° 295° (WNW) 15:50:19 437.325
HORYU 2 06 Feb 15:47:14 15:51:38 71° 74° (ENE) 15:56:03 437.375
M-CUBED/EXP-1 PRIME 06 Feb 15:49:39 15:53:08 35° 255° (WSW) 15:56:25 437.505
BEESAT 06 Feb 15:53:39 15:57:14 21° 297° (WNW) 16:00:49 436.000
AUBIESAT-1 06 Feb 16:03:07 16:06:26 30° 257° (WSW) 16:09:35 437.475
ISS 06 Feb 16:20:51 16:21:35 11° 131° (SE) 16:22:19 145.825
AO-7 06 Feb 16:22:13 16:29:47 37° 263° (W) 16:37:25 29.400- 29.500
MOZHAYETS 4 06 Feb 16:22:50 16:27:25 58° 100° (E) 16:32:00
SO-50 06 Feb 16:32:44 16:34:28 12° 254° (WSW) 16:36:11 436.795
CUTE-I 06 Feb 16:40:23 16:44:32 24° 62° (ENE) 16:48:43 437.470
STARS 06 Feb 16:50:29 16:54:45 52° 288° (WNW) 16:58:58 437.465
Cubesat XI-IV 06 Feb 16:52:24 16:56:56 30° 65° (ENE) 17:01:31 437.490
CUBESAT XI-V 06 Feb 16:54:40 16:57:04 14° 89° (E) 16:59:28 437.345
KKS-1 06 Feb 16:57:51 17:01:32 26° 294° (WNW) 17:05:12 437.445
YUBILEINY 06 Feb 16:58:41 17:05:08 23° 281° (WNW) 17:11:33 435.215
GOMX 1 06 Feb 16:59:54 17:00:12 10° 56° (ENE) 17:00:31 467.674
Cosmos 2491 06 Feb 17:02:51 17:11:04 45° 288° (WNW) 17:19:21 435.465 / 435.565
Cosmos 2504 06 Feb 17:04:11 17:12:59 82° 265° (W) 17:21:11 435.465 / 435.565
BRITE-PL 06 Feb 17:08:02 17:12:27 24° 63° (ENE) 17:16:48 437.365/2234.400
RS-15 06 Feb 17:09:28 17:19:00 27° 360° (N) 17:28:52 29.354- 29.394
HORYU 2 06 Feb 17:27:07 17:28:42 12° 271° (W) 17:30:16 437.375
LilacSat-2 06 Feb 17:42:23 17:46:11 62° 74° (ENE) 17:49:58 437.200
O/OREOS (USA 219) 06 Feb 17:43:43 17:47:34 26° 56° (NE) 17:51:25 437.305
ISS 06 Feb 17:54:17 17:57:31 79° 147° (SSE) 18:00:47 145.825
BEESAT 3 06 Feb 18:00:15 18:03:53 35° 117° (ESE) 18:07:33 437.485
MOZHAYETS 4 06 Feb 18:01:10 18:04:09 17° 298° (WNW) 18:07:08
AO-85 06 Feb 18:09:55 18:12:54 15° 28° (NNE) 18:15:47 145.980
BEESAT 2 06 Feb 18:17:42 18:21:22 35° 117° (ESE) 18:25:03 435.950
CUTE-I 06 Feb 18:19:05 18:24:15 51° 260° (W) 18:29:28 437.470
GONETS M04 06 Feb 18:30:08 18:34:39 15° 54° (NE) 18:39:08
CUBESAT XI-V 06 Feb 18:30:14 18:34:56 67° 286° (WNW) 18:39:35 437.345
Cubesat XI-IV 06 Feb 18:31:54 18:36:52 40° 262° (W) 18:41:53 437.490
GOMX 1 06 Feb 18:31:58 18:37:22 64° 73° (ENE) 18:42:34 467.674
DOVE 4 06 Feb 18:32:37 18:37:16 36° 69° (ENE) 18:41:45 437.250
HO-68 06 Feb 18:44:19 18:50:46 38° 62° (ENE) 18:57:15 435.675
BRITE-PL 06 Feb 18:44:53 18:50:30 58° 261° (W) 18:56:03 437.365/2234.400
CANX-2 06 Feb 18:46:47 18:49:53 20° 65° (ENE) 18:53:00 2200.000
Cosmos 2504 06 Feb 18:59:49 19:04:51 17° 286° (WNW) 19:09:43 435.465 / 435.565
PCSat 06 Feb 19:05:43 19:09:11 17° 37° (NE) 19:12:37 145.827
STRAND 1 06 Feb 19:18:30 19:23:31 48° 100° (E) 19:28:29 437.568
LilacSat-2 06 Feb 19:20:38 19:20:54 10° 271° (W) 19:21:10 437.200
O/OREOS (USA 219) 06 Feb 19:22:51 19:27:04 37° 254° (WSW) 19:31:17 437.305
RS-15 06 Feb 19:24:41 19:35:53 41° 33° (NNE) 19:47:18 29.354- 29.394
ISS 06 Feb 19:31:26 19:34:15 27° 346° (NNW) 19:37:05 145.825
CUTE 1.7 + AOD 2 06 Feb 19:36:51 19:40:58 60° 74° (ENE) 19:45:09 437.475
BEESAT 3 06 Feb 19:38:20 19:41:43 26° 315° (NW) 19:45:08 437.485
COMPASS 1 06 Feb 19:42:29 19:46:20 38° 70° (ENE) 19:50:12 437.405
AIST 2 06 Feb 19:44:14 19:47:54 31° 116° (ESE) 19:51:36 435.215
AO-85 06 Feb 19:49:27 19:54:39 56° 51° (NE) 19:59:24 145.980
SEEDS 06 Feb 19:49:43 19:53:50 63° 75° (ENE) 19:58:00 437.485
CINEMA 3 06 Feb 19:53:56 19:58:39 79° 76° (ENE) 20:03:10 145.822/145.860
BEESAT 2 06 Feb 19:55:53 19:59:20 26° 315° (NW) 20:02:47 435.950
ZACube-1 06 Feb 20:01:58 20:04:53 18° 65° (ENE) 20:07:45 437.345
PRISM 06 Feb 20:06:27 20:10:30 46° 99° (E) 20:14:31 437.425
DOVE 4 06 Feb 20:10:28 20:14:58 30° 265° (W) 20:19:19 437.250
GOMX 1 06 Feb 20:12:06 20:15:47 18° 270° (W) 20:19:25 467.674
FUNcube-1 06 Feb 20:12:33 20:15:49 22° 67° (ENE) 20:19:03 145.935
AAUSAT CUBESAT 2 06 Feb 20:14:23 20:18:29 72° 75° (ENE) 20:22:39 437.432
CANX-2 06 Feb 20:21:35 20:25:30 38° 262° (W) 20:29:28 2200.000
DELFI C3 06 Feb 20:23:04 20:26:01 20° 66° (ENE) 20:28:59 145.870
Cosmos 2499 06 Feb 20:23:25 20:30:48 31° 66° (ENE) 20:37:43 435.465 / 435.565
GONETS M04 06 Feb 20:24:42 20:33:29 66° 78° (ENE) 20:42:14
CUBEBUG 2 06 Feb 20:25:46 20:30:04 62° 74° (ENE) 20:34:18 437.445
HO-68 06 Feb 20:31:29 20:38:19 47° 261° (W) 20:45:14 435.675
UWE-3 06 Feb 20:34:19 20:38:31 55° 74° (ENE) 20:42:39 435.000/436.395/437.385
PCSat 06 Feb 20:48:03 20:53:31 76° 58° (ENE) 20:58:57 145.827
Oscar 11 06 Feb 20:49:49 20:54:05 75° 75° (ENE) 20:58:25 145.826/435.025
HUMSAT D 06 Feb 20:51:50 20:54:41 19° 65° (ENE) 20:57:33 437.325/437.525
STRAND 1 06 Feb 20:58:20 21:02:22 24° 297° (WNW) 21:06:25 437.568
ISS 06 Feb 21:08:48 21:11:25 22° 6° (N) 21:14:01 145.825
CUTE 1.7 + AOD 2 06 Feb 21:15:22 21:17:14 13° 271° (W) 21:19:06 437.475
COMPASS 1 06 Feb 21:19:05 21:22:03 19° 268° (W) 21:25:03 437.405
AIST 2 06 Feb 21:22:39 21:26:23 31° 314° (NW) 21:30:08 435.215
SEEDS 06 Feb 21:28:24 21:29:59 12° 271° (W) 21:31:35 437.485
AO-85 06 Feb 21:30:54 21:34:42 21° 251° (WSW) 21:38:16 145.980
CINEMA 3 06 Feb 21:34:50 21:36:16 11° 271° (W) 21:37:40 145.822/145.860
ZACube-1 06 Feb 21:36:51 21:40:53 43° 261° (W) 21:44:54 437.345
RS-15 06 Feb 21:37:31 21:49:41 81° 240° (WSW) 22:02:01 29.354- 29.394
VELOX 1 06 Feb 21:39:17 21:41:45 15° 61° (ENE) 21:44:13 145.980
PRISM 06 Feb 21:42:43 21:45:30 17° 297° (WNW) 21:48:15 437.425
FUNcube-1 06 Feb 21:48:03 21:51:54 34° 263° (W) 21:55:44 145.935
AIST 1 06 Feb 21:50:48 21:54:52 36° 75° (ENE) 21:58:52
AAUSAT CUBESAT 2 06 Feb 21:54:09 21:54:30 10° 272° (W) 21:54:51 437.432
AISAT 06 Feb 21:54:14 21:57:36 21° 64° (ENE) 22:00:58 437.250
DELFI C3 06 Feb 21:57:06 22:00:44 34° 263° (W) 22:04:23 145.870
ESTCUBE 1 06 Feb 22:01:28 22:05:12 26° 66° (ENE) 22:08:59 437.505/2401.250
CUBEBUG 2 06 Feb 22:05:08 22:07:05 13° 270° (W) 22:09:01 437.445
UWE-3 06 Feb 22:13:05 22:15:20 14° 269° (W) 22:17:34 435.000/436.395/437.385
ANTELSAT 06 Feb 22:14:31 22:18:16 28° 96° (E) 22:22:03 437.575/2403.000
Cosmos 2499 06 Feb 22:16:09 22:24:33 62° 268° (W) 22:32:20 435.465 / 435.565
GONETS M04 06 Feb 22:22:29 22:29:36 29° 278° (W) 22:36:44
TIGRISAT 06 Feb 22:22:33 22:26:26 32° 97° (E) 22:30:22 435.000
CUBEBUG 1 06 Feb 22:23:35 22:27:31 32° 68° (ENE) 22:31:28 437.445
UKube-1 06 Feb 22:25:56 22:29:57 38° 69° (ENE) 22:33:58 .
HUMSAT D 06 Feb 22:26:13 22:30:04 40° 262° (W) 22:33:56 437.325/437.525
Oscar 11 06 Feb 22:29:56 22:30:46 10° 272° (W) 22:31:34 145.826/435.025
DX 1 06 Feb 22:31:22 22:35:37 50° 71° (ENE) 22:39:53 434.975-435.025
PCSat 06 Feb 22:32:59 22:36:15 16° 256° (WSW) 22:39:30 145.827
SPROUT 06 Feb 22:42:27 22:45:27 19° 64° (ENE) 22:48:27 437.525
ISS 06 Feb 22:45:13 22:48:24 50° 26° (NNE) 22:51:34 145.825
50 SAT 06 Feb 22:51:07 22:54:48 88° 246° (WSW) 22:58:33 437.505
POPSAT HIP 1 06 Feb 22:56:35 22:59:39 19° 93° (E) 23:02:40 437.405
NANOSAT C BR1 06 Feb 23:03:19 23:06:38 22° 94° (E) 23:09:56 145.865
UNISAT 6 06 Feb 23:05:38 23:09:56 82° 287° (WNW) 23:14:19 437.425
TISAT 1 06 Feb 23:06:04 23:08:05 13° 61° (ENE) 23:10:05 437.305
DUCHIFAT 1 06 Feb 23:06:19 23:09:40 23° 94° (E) 23:12:59 145.980
QB50P1 06 Feb 23:09:10 23:12:45 26° 95° (E) 23:16:18 145.935-145.965
VELOX 1 06 Feb 23:13:17 23:17:42 65° 258° (WSW) 23:22:10 145.980
AIST 1 06 Feb 23:29:00 23:32:12 20° 273° (W) 23:35:23
AISAT 06 Feb 23:29:34 23:33:49 42° 261° (W) 23:38:06 437.250
ESTCUBE 1 06 Feb 23:37:48 23:41:53 34° 263° (W) 23:46:02 437.505/2401.250
ANTELSAT 06 Feb 23:51:16 23:54:57 28° 292° (WNW) 23:58:40 437.575/2403.000
RS-15 06 Feb 23:51:56 00:00:17 22° 261° (W) 00:08:43 29.354- 29.394
TIGRISAT 06 Feb 23:59:32 00:03:01 24° 293° (WNW) 00:06:31 435.000
POLYITAN 1 06 Feb 23:59:54 00:04:07 83° 284° (WNW) 00:08:19 437.675
CUBEBUG 1 07 Feb 00:00:05 00:03:48 26° 265° (W) 00:07:34 437.445
QB50P2 07 Feb 00:00:45 00:04:58 79° 286° (WNW) 00:09:10 145.880/145.840
UKube-1 07 Feb 00:02:49 00:06:08 21° 266° (W) 00:09:28 .
DX 1 07 Feb 00:09:20 00:12:06 16° 268° (W) 00:14:52 434.975-435.025
Cosmos 2499 07 Feb 00:13:28 00:15:40 11° 290° (WNW) 00:17:52 435.465 / 435.565
SPROUT 07 Feb 00:17:00 00:21:07 44° 261° (W) 00:25:16 437.525
ISS 07 Feb 00:21:59 00:24:41 24° 223° (SW) 00:27:21 145.825
BUGSAT 1 07 Feb 00:22:22 00:26:27 85° 103° (ESE) 00:30:29 437.445
POPSAT HIP 1 07 Feb 00:31:41 00:35:35 38° 290° (WNW) 00:39:29 437.405
